SM5FGQ-2 Weather Reports


Display with metric or nautical units.
time (UTC)temp
F
wind
direction
speed
MPH
gust
MPH
rain 1hr
in
rain 24hr
in
rain mn
in
humidity
%
barometer
mb
20260905163108 56 267 1.0 3.0 0.04 0.05 0.05 78 999.0
20260905160058 61 304 4.0 12.0 0.01 0.02 0.02 69 998.7
20260905153048 61 266 2.0 4.0 0.00 0.01 0.01 68 998.4
20260905150038 61 230 0.0 5.0 0.00 0.01 0.01 69 998.0
20260905143030 61 305 2.0 6.0 0.00 0.01 0.01 66 997.8
20260905140018 62 317 1.0 6.0 0.00 0.01 0.01 65 997.6
20260905133108 61 326 3.0 6.0 0.00 0.01 0.01 68 997.5
20260905130058 62 321 3.0 7.0 0.00 0.01 0.01 63 997.3
20260905123110 63 278 3.0 6.0 0.00 0.01 0.01 62 997.1
20260905120039 63 280 2.0 7.0 0.00 0.01 0.01 61 996.9
20260905113028 61 301 3.0 8.0 0.00 0.01 0.01 64 996.8
20260905110018 63 289 3.0 8.0 0.00 0.01 0.01 64 996.4
20260905103109 62 267 2.0 6.0 0.00 0.01 0.01 66 996.2
20260905100059 62 285 2.0 6.0 0.00 0.01 0.01 68 996.1
20260905093049 61 272 2.0 5.0 0.00 0.03 0.01 71 996.0
20260905090039 59 275 2.0 4.0 0.00 0.09 0.01 75 995.8
20260905083029 57 299 2.0 5.0 0.00 0.16 0.01 78 995.5
20260905080019 57 267 2.0 4.0 0.00 0.22 0.01 79 995.1
20260905073109 56 280 2.0 5.0 0.00 0.22 0.01 82 994.8
20260905070101 55 271 2.0 5.0 0.00 0.22 0.01 84 994.5
20260905063048 54 285 2.0 6.0 0.00 0.24 0.01 85 994.2
20260905060039 54 272 3.0 6.0 0.00 0.27 0.01 89 993.8
20260905053029 53 272 3.0 6.0 0.00 0.27 0.01 91 993.6
20260905050019 53 290 3.0 7.0 0.00 0.29 0.01 92 993.4
20260905043110 53 277 3.0 5.0 0.00 0.29 0.01 91 993.1
20260905040120 53 275 3.0 6.0 0.00 0.29 0.01 91 992.7
20260905033050 53 276 3.0 6.0 0.00 0.29 0.01 91 992.4
20260905030040 53 280 4.0 9.0 0.00 0.29 0.01 91 992.1
20260905023029 52 289 4.0 8.0 0.00 0.29 0.01 91 991.9
20260905020020 52 283 3.0 7.0 0.00 0.29 0.01 91 991.7
20260905013110 52 292 3.0 12.0 0.00 0.29 0.01 91 991.6
20260905010101 52 269 3.0 8.0 0.00 0.29 0.01 90 991.5
20260905003050 52 284 4.0 9.0 0.01 0.29 0.01 90 991.4
20260905000040 52 280 4.0 9.0 0.01 0.29 0.01 91 991.4
20260904233030 53 276 4.0 7.0 0.00 0.28 0.00 91 991.3
20260904230020 53 279 5.0 12.0 0.00 0.28 0.00 91 991.2
20260904223111 53 298 4.0 10.0 0.00 0.28 0.00 93 991.1
20260904220121 53 278 3.0 7.0 0.00 0.28 0.00 92 990.9
20260904213111 53 274 2.0 4.0 0.00 0.28 0.28 90 990.9
20260904210040 54 280 2.0 6.0 0.00 0.28 0.28 86 990.8
20260904203031 55 258 3.0 9.0 0.00 0.28 0.28 85 990.8
20260904200020 55 255 3.0 8.0 0.00 0.28 0.28 84 990.8
20260904193112 55 216 1.0 6.0 0.00 0.28 0.28 84 990.9
20260904190101 55 138 0.0 2.0 0.00 0.28 0.28 87 991.0
20260904183050 56 116 0.0 2.0 0.00 0.28 0.28 85 991.0
20260904180040 58 118 1.0 3.0 0.00 0.28 0.28 81 991.2
20260904173030 59 221 1.0 4.0 0.00 0.28 0.28 79 991.2
20260904170020 59 162 1.0 4.0 0.00 0.28 0.28 83 991.3